Location: Esterri de Aneo
(42.6284°N, 1.1223°E)
Time: 03:15:16
(UTC+00:00)

COSMO-SKYMED 1 - Pass Details

Date: 11 December 2025
Orbit: 578 x 580 km, 97.9° (Epoch: 12 January)

Event Time Altitude Azimuth Distance (km) Brightness Sun altitude
Exits shadow 17:51:13 28° 58° (ENE) 1,100 3.3 -15.8°
Maximum altitude 17:52:35 36° 98° (E) 926 3.0 -16.0°
Drops below altitude 10° 17:56:21 10° 165° (SSE) 1,885 5.1 -16.7°
Sets 17:58:38 0° 174° (S) 2,779 6.0 -17.1°
